This is the latest recevied weather packets stored in our database for station/object IR9AK-10. If no packets are shown the sender has not sent any weather packets the latest 1 day(s).
| Time | Temp. | Humidity | Pressure | Rain* | Wind** | Luminosity | Snow |
|---|---|---|---|---|---|---|---|
| 1788591740 | 38.89° C | 34% | 1064 hPa | - | - | - | - |
| 1788591141 | 38.89° C | 33% | 1063.9 hPa | - | - | - | - |
| 1788590543 | 38.89° C | 33% | 1063.9 hPa | - | - | - | - |
| 1788589945 | 38.89° C | 31% | 1063.9 hPa | - | - | - | - |
| 1788589345 | 38.33° C | 28% | 1063.9 hPa | - | - | - | - |
| 1788588745 | 37.78° C | 26% | 1063.8 hPa | - | - | - | - |
| 1788588146 | 37.78° C | 27% | 1063.8 hPa | - | - | - | - |
| 1788587547 | 37.22° C | 27% | 1063.8 hPa | - | - | - | - |
| 1788586948 | 37.22° C | 27% | 1063.7 hPa | - | - | - | - |
| 1788586348 | 37.22° C | 28% | 1063.6 hPa | - | - | - | - |
| 1788585747 | 36.67° C | 27% | 1063.6 hPa | - | - | - | - |
| 1788585148 | 36.67° C | 28% | 1063.5 hPa | - | - | - | - |
| 1788584550 | 36.67° C | 26% | 1063.4 hPa | - | - | - | - |
| 1788583951 | 36.11° C | 26% | 1063.5 hPa | - | - | - | - |
| 1788583352 | 36.11° C | 26% | 1063.3 hPa | - | - | - | - |
| 1788582752 | 36.11° C | 27% | 1063.3 hPa | - | - | - | - |
| 1788582152 | 36.11° C | 28% | 1063.2 hPa | - | - | - | - |
| 1788581553 | 36.11° C | 29% | 1063.2 hPa | - | - | - | - |
| 1788580954 | 36.67° C | 30% | 1063.1 hPa | - | - | - | - |
| 1788580354 | 36.67° C | 29% | 1063.1 hPa | - | - | - | - |
| 1788579754 | 36.67° C | 30% | 1062.9 hPa | - | - | - | - |
| 1788579154 | 36.67° C | 29% | 1062.9 hPa | - | - | - | - |
| 1788578556 | 36.67° C | 31% | 1062.9 hPa | - | - | - | - |
| 1788577957 | 36.67° C | 30% | 1062.8 hPa | - | - | - | - |
| 1788577358 | 36.67° C | 30% | 1062.9 hPa | - | - | - | - |
* Rain since midnight (hover to see other rain measurements)
** Current wind speed in m/s (hover to see current wind gust speed)